Flag for Madagascar Weather past 2 weeks in Antsirabe, Madagascar

Now
70 °F

Fog.


Feels Like: 70 °F
Forecast: 56 / 82 °F
Wind: 2 mph from North

Location: Antananarivo / Ivato

Current Time: Oct 26, 2014 at 8:41:25 AM

Latest Report: Oct 26, 2014 at 8:00 AM


Visibility: 2 mi

Pressure: 30.18 "Hg

Humidity: 88%

Dew point: 66 °F

Location of AntsirabeLocation

Historic Weather in Antsirabe — Graph

°F

Antsirabe temperature yesterday

Maximum temperature yesterday: 86 °F (at 2:30 PM)
Minimum temperature yesterday: 59 °F (at 5:30 AM)
Average temperature yesterday: 73 °F

Past Weeks' High & Low Weather Summary

 TemperatureHumidityPressure
High91 °F (Oct 14, 3:30 PM)100% (Oct 11, 7:00 AM)30.33 "Hg (Oct 11, 7:00 AM)
Low50 °F (Oct 13, 5:00 AM)27% (Oct 14, 3:00 PM)29.98 "Hg (Oct 15, 3:00 PM)
Average72 °F72%30.13 "Hg
* Reported Oct 11 7:00 AM — Oct 26 7:30 AM, Antsirabe, Weather by CustomWeather, © 2014

Note: Actual official high and low records may vary slightly from our data, if they occured in-between our weather recording intervals... More about our weather records

Advertising

Antsirabe weather history for previous 24 hours

 ConditionsComfort  
Time TempWeatherWind HumidityBarometerVisibility
7:30 AM
Oct 26
70 °FFog.2 mph88%30.15 "Hg2 mi
7:00 AM64 °FFog.2 mph100%30.15 "Hg2 mi
6:30 AM63 °FFog.2 mph100%30.15 "Hg2 mi
6:00 AM59 °FFog.No wind100%30.15 "Hg3 mi
5:30 AM57 °FFog.1 mph100%30.12 "Hg3 mi
5:00 AM55 °FFog.1 mph100%30.12 "Hg5 mi
4:30 AM59 °FPassing clouds.1 mph100%30.12 "HgN/A
4:00 AM57 °FPassing clouds.No wind100%30.09 "HgN/A
3:00 AM59 °FPassing clouds.No wind100%30.09 "HgN/A
2:30 AM57 °FPassing clouds.No wind100%30.09 "HgN/A
2:00 AM59 °FPassing clouds.2 mph100%30.09 "HgN/A
1:30 AM57 °FPassing clouds.1 mph100%30.09 "HgN/A
1:00 AM61 °FPassing clouds.1 mph100%30.12 "HgN/A
12:00 AM63 °FPassing clouds.No wind100%30.12 "HgN/A
11:30 PM
Oct 25
63 °FPassing clouds.3 mph100%30.15 "HgN/A
11:00 PM64 °FPassing clouds.5 mph94%30.15 "HgN/A
10:30 PM66 °FPassing clouds.6 mph73%30.15 "HgN/A
10:00 PM64 °FPassing clouds.6 mph68%30.15 "HgN/A
9:30 PM68 °FPassing clouds.6 mph60%30.15 "HgN/A
9:00 PM72 °FPassing clouds.6 mph50%30.12 "HgN/A
8:30 PM68 °FPassing clouds.6 mph56%30.12 "HgN/A
8:00 PM70 °FPassing clouds.5 mph50%30.12 "HgN/A
7:00 PM70 °FThunderstorms. Passing clouds.3 mph50%30.09 "HgN/A
6:30 PM73 °FPassing clouds.5 mph47%30.09 "HgN/A
6:00 PM75 °FPassing clouds.7 mph41%30.07 "HgN/A
5:30 PM79 °FPassing clouds.10 mph37%30.07 "HgN/A
5:00 PM82 °FPassing clouds.12 mph30%30.04 "HgN/A
4:00 PM86 °FScattered clouds.10 mph31%30.04 "HgN/A
3:30 PM86 °FScattered clouds.14 mph31%30.04 "HgN/A
3:00 PM84 °FPartly sunny.15 mph31%30.04 "HgN/A
2:30 PM86 °FPartly sunny.10 mph33%30.07 "HgN/A
2:00 PM84 °FPartly sunny.13 mph35%30.07 "HgN/A
1:30 PM84 °FPartly sunny.N/A35%30.07 "HgN/A
1:00 PM82 °FPartly sunny.14 mph37%30.07 "HgN/A
12:30 PM82 °FPartly sunny.15 mph37%30.09 "HgN/A
12:00 PM82 °FPartly sunny.12 mph40%30.09 "HgN/A
11:30 AM82 °FScattered clouds.12 mph42%30.12 "HgN/A
11:00 AM79 °FScattered clouds.13 mph48%30.12 "HgN/A
10:30 AM81 °FScattered clouds.10 mph48%30.15 "HgN/A
10:00 AM79 °FScattered clouds.14 mph54%30.15 "HgN/A
9:30 AM79 °FScattered clouds.13 mph54%30.15 "HgN/A
9:00 AM75 °FScattered clouds.6 mph69%30.15 "HgN/A
8:30 AM73 °FScattered clouds.6 mph69%30.15 "HgN/A
8:00 AM70 °FScattered clouds.8 mph83%30.15 "HgN/A
Weather by CustomWeather, © 2014

See weather overviewHow to use our weather pages